Weather in Bauska

Latvia     56˚24′21″N   24˚12′10″E
temp.,
°C
wind,
m/s
gust,
m/s
humid.,
%
clouds,
%
prec.,
mm/h
press.,
hPa
HPBL,
m
3 december, thu
thu323:00−3˚se478999 0.0 1026418
02:00−4˚ese269688 0.0 1024171
05:00−2˚se3895100 0.1 1023435
08:00−3˚se489595 0.2 1021360
11:00−2˚se599079 0.0 1021483
14:00−1˚sse598581 0.0 1020683
17:00−1˚sse61084100 0.0 1019749
20:00−1˚sse61184100 0.0 1017858
4 december, fri
fri423:00−1˚se71485100 0.0 1016722
02:00se71384100 0.0 1016770
05:00se71484100 0.0 1014743
08:00+1˚se71583100 0.1 1014755
11:00+2˚se81585100 0.0 1013815
14:00+3˚sse81484100 0.0 1014823
17:00+3˚se81584100 0.0 1013804
20:00+3˚se81584100 0.0 1013819
5 december, sat
sat523:00+3˚sse81585100 0.0 1013826
02:00+4˚sse61688100 0.0 1013817
05:00+5˚se71687100 0.0 1013750
08:00+4˚sse7168992 0.0 1014701
11:00+5˚sse81686100 0.0 1015789
14:00+6˚sse8158397 0.0 1016780
17:00+6˚sse8168497 0.0 1016773
20:00+6˚sse7168588 0.0 1018778
6 december, sun
sun623:00+6˚sse71484100 0.0 1018797
02:00+6˚sse71484100 0.0 1020736
05:00+6˚sse71484100 0.0 1020775
08:00+6˚sse81381100 0.0 1021795
11:00+5˚sse81379100 0.0 1022826
14:00+5˚sse71374100 0.0 1023829
17:00+3˚se7147698 0.0 1024669
20:00+2˚se7157551 0.0 1026635
7 december, mon
mon723:00+1˚se717570 0.0 1027579
02:00+1˚se717560 0.0 1027560
05:00se716530 0.0 1027568
08:00se715520 0.0 1027623
11:00+1˚se815480 0.0 1027715
14:00+2˚se815480 0.0 1026789
17:00se817510 0.0 1026726
20:00se817510 0.0 1026714